Overview Statistics Trail Chart Weather Telemetry Raw packets
 

This is the latest recevied weather packets stored in our database for station/object HB9KBJ-4. If no packets are shown the sender has not sent any weather packets the latest 10 day(s).

<< 66 67 68 69 70 71 72 >>
Time Temp. Humidity Pressure Rain* Wind** Luminosity Snow
1787840766 30.56° C 37% - 0 mm - - -
1787840465 31.11° C 40% - 0 mm - - -
1787840165 31.11° C 39% - 0 mm - - -
1787839865 31.67° C 39% - 0 mm - - -
1787839565 31.11° C 38% - 0 mm - - -
1787838664 30.56° C 39% - 0 mm - - -
1787837763 31.11° C 39% - 0 mm - - -
1787837463 31.11° C 39% - 0 mm - - -
1787836262 31.11° C 39% - 0 mm - - -
1787835961 30.56° C 40% - 0 mm - - -
1787835661 30° C 41% - 0 mm - - -
1787835060 30° C 40% - 0 mm - - -
1787834760 30° C 39% - 0 mm - - -
1787834460 30° C 39% - 0 mm - - -
1787834160 30° C 40% - 0 mm - - -
1787833559 30° C 41% - 0 mm - - -
1787831757 27.78° C 45% - 0 mm - - -
1787831457 27.78° C 43% - 0 mm - - -
1787831157 27.78° C 43% - 0 mm - - -
1787830556 27.22° C 45% - 0 mm - - -
1787830256 27.22° C 43% - 0 mm - - -
1787829956 26.67° C 44% - 0 mm - - -
1787829355 26.11° C 45% - 0 mm - - -
1787827854 24.44° C 50% - 0 mm - - -
1787826653 23.33° C 51% - 0 mm - - -

* Rain since midnight (hover to see other rain measurements)
** Current wind speed in m/s (hover to see current wind gust speed)